NO4D Weather Reports


time (UTC)temp
C
wind
direction
speed
KPH
gust
KPH
rain 1hr
cm
rain 24hr
cm
rain mn
cm
humidity
%
barometer
mb
20260504050738 11 189 1.6 1.6 0.00 0.00 0.00 76 1017.4
20260504050235 11 175 0.0 1.6 0.00 0.00 0.00 76 1017.2
20260504045732 11 171 0.0 0.0 0.00 0.00 0.00 75 1016.9
20260504045227 11 179 0.0 0.0 0.00 0.00 0.00 75 1016.9
20260504044725 11 179 0.0 0.0 0.00 0.00 0.00 75 1016.9
20260504044222 11 179 0.0 0.0 0.00 0.00 0.00 74 1017.0
20260504043719 11 181 0.0 0.0 0.00 0.00 0.00 74 1017.2
20260504043216 12 179 0.0 1.6 0.00 0.00 0.00 74 1017.3
20260504042714 12 179 0.0 0.0 0.00 0.00 0.00 73 1017.2
20260504042210 12 165 1.6 1.6 0.00 0.00 0.00 73 1017.4
20260504041706 12 170 0.0 0.0 0.00 0.00 0.00 73 1017.3
20260504041202 12 179 0.0 0.0 0.00 0.00 0.00 74 1017.3
20260504040659 12 179 0.0 0.0 0.00 0.00 0.00 73 1017.6
20260504040156 12 179 0.0 0.0 0.00 0.00 0.00 71 1017.5
20260504035652 12 179 0.0 0.0 0.00 0.00 0.00 71 1017.3
20260504035150 12 185 0.0 0.0 0.00 0.00 0.00 71 1017.5
20260504034647 13 188 0.0 0.0 0.00 0.00 0.00 70 1017.5
20260504034144 13 178 0.0 0.0 0.00 0.00 0.00 69 1017.7
20260504033642 12 165 0.0 0.0 0.00 0.00 0.00 69 1017.4
20260504033139 12 176 0.0 0.0 0.00 0.00 0.00 69 1017.4
20260504032635 12 161 0.0 0.0 0.00 0.00 0.00 69 1017.5
20260504032132 13 160 0.0 0.0 0.00 0.00 0.00 68 1017.6
20260504031630 13 166 0.0 0.0 0.00 0.00 0.00 67 1017.6
20260504031126 13 155 0.0 0.0 0.00 0.00 0.00 67 1017.3
20260504030623 13 169 0.0 0.0 0.00 0.00 0.00 66 1017.3
20260504030119 13 174 0.0 0.0 0.00 0.00 0.00 67 1017.1
20260504025616 13 163 1.6 1.6 0.00 0.00 0.00 68 1017.2
20260504025113 13 162 0.0 0.0 0.00 0.00 0.00 68 1017.1
20260504024611 13 161 0.0 0.0 0.00 0.00 0.00 67 1017.2
20260504024107 13 161 0.0 0.0 0.00 0.00 0.00 66 1017.3
20260504023603 13 161 0.0 0.0 0.00 0.00 0.00 67 1017.4
20260504023059 13 161 0.0 0.0 0.00 0.00 0.00 66 1017.2
20260504022556 13 161 0.0 0.0 0.00 0.00 0.00 66 1017.1
20260504022052 13 158 0.0 0.0 0.00 0.00 0.00 66 1017.1
20260504021550 13 165 0.0 0.0 0.00 0.00 0.00 67 1017.0
20260504021046 13 165 0.0 0.0 0.00 0.00 0.00 66 1017.0
20260504020543 13 157 1.6 1.6 0.00 0.00 0.00 66 1016.9
20260504020040 13 175 0.0 0.0 0.00 0.00 0.00 65 1016.9
20260504015536 14 178 0.0 0.0 0.00 0.00 0.00 64 1016.9
20260504015032 14 179 0.0 0.0 0.00 0.00 0.00 64 1017.0
20260504014528 15 188 0.0 0.0 0.00 0.00 0.00 63 1016.7
20260504014026 15 189 0.0 0.0 0.00 0.00 0.00 62 1016.8
20260504013524 15 188 1.6 1.6 0.00 0.00 0.00 62 1016.7
20260504013020 15 189 0.0 0.0 0.00 0.00 0.00 61 1016.6
20260504012518 15 187 1.6 1.6 0.00 0.00 0.00 61 1016.5
20260504012016 15 189 0.0 1.6 0.00 0.00 0.00 60 1016.6
20260504011512 15 186 0.0 1.6 0.00 0.00 0.00 60 1016.5
20260504011008 14 180 0.0 0.0 0.00 0.00 0.00 58 1016.6
20260504010504 14 180 0.0 0.0 0.00 0.00 0.00 57 1016.3
20260504010000 15 180 0.0 0.0 0.00 0.00 0.00 57 1016.4
20260504005457 15 180 0.0 0.0 0.00 0.00 0.00 56 1016.5
20260504004954 15 180 0.0 0.0 0.00 0.00 0.00 56 1016.4
20260504004452 15 180 0.0 0.0 0.00 0.00 0.00 56 1016.3
20260504003949 15 180 0.0 0.0 0.00 0.00 0.00 56 1016.3
20260504003445 15 180 0.0 0.0 0.00 0.00 0.00 55 1016.4
20260504002942 15 180 0.0 0.0 0.00 0.00 0.00 54 1016.3
20260504002439 16 180 0.0 0.0 0.00 0.00 0.00 53 1016.2
20260504001936 16 180 0.0 0.0 0.00 0.00 0.00 53 1016.3
20260504001433 16 180 0.0 0.0 0.00 0.00 0.00 52 1016.2
20260504000930 17 180 0.0 0.0 0.00 0.00 0.00 51 1016.2
20260504000427 17 139 1.6 4.8 0.00 0.00 0.00 50 1016.0
20260503235924 17 180 0.0 0.0 0.00 0.00 0.00 49 1016.1
20260503235422 17 183 0.0 0.0 0.00 0.00 0.00 49 1015.9
20260503234919 18 191 3.2 4.8 0.00 0.00 0.00 48 1016.3
20260503234417 18 238 3.2 4.8 0.00 0.00 0.00 47 1016.2
20260503233914 18 208 3.2 4.8 0.00 0.00 0.00 47 1015.9
20260503233411 18 183 0.0 0.0 0.00 0.00 0.00 48 1015.9
20260503232907 18 175 4.8 6.4 0.00 0.00 0.00 46 1016.3
20260503232405 19 209 3.2 4.8 0.00 0.00 0.00 45 1016.1
20260503231902 19 190 1.6 1.6 0.00 0.00 0.00 46 1016.2
20260503231359 19 203 4.8 6.4 0.00 0.00 0.00 44 1016.4
20260503230855 20 215 4.8 6.4 0.00 0.00 0.00 43 1016.2
20260503230352 20 198 1.6 4.8 0.00 0.00 0.00 45 1016.2
20260503225850 20 202 3.2 4.8 0.00 0.00 0.00 44 1016.1
20260503225345 20 251 8.0 11.3 0.00 0.00 0.00 43 1016.1
20260503224842 20 183 4.8 6.4 0.00 0.00 0.00 43 1016.5
20260503224339 20 226 6.4 8.0 0.00 0.00 0.00 43 1016.1
20260503223837 20 216 4.8 4.8 0.00 0.00 0.00 42 1016.3
20260503223335 20 190 8.0 11.3 0.00 0.00 0.00 41 1016.2
20260503222830 21 195 4.8 6.4 0.00 0.00 0.00 41 1016.3
20260503222329 20 199 3.2 4.8 0.00 0.00 0.00 41 1016.5
20260503221826 20 222 8.0 11.3 0.00 0.00 0.00 39 1016.3
20260503221325 20 163 3.2 4.8 0.00 0.00 0.00 42 1016.4
20260503220820 21 235 4.8 6.4 0.00 0.00 0.00 41 1016.4
20260503220318 21 249 6.4 8.0 0.00 0.00 0.00 39 1016.5
20260503215814 21 191 1.6 1.6 0.00 0.00 0.00 39 1016.4
20260503215312 21 197 4.8 6.4 0.00 0.00 0.00 39 1016.3
20260503214809 21 196 4.8 6.4 0.00 0.00 0.00 40 1016.4
20260503214306 21 221 1.6 4.8 0.00 0.00 0.00 39 1016.5
20260503213804 21 210 6.4 6.4 0.00 0.00 0.00 40 1016.6
20260503213301 21 210 4.8 6.4 0.00 0.00 0.00 41 1016.4
20260503212758 21 177 3.2 4.8 0.00 0.00 0.00 39 1016.4
20260503212256 21 242 6.4 8.0 0.00 0.00 0.00 39 1016.6
20260503211753 21 229 9.7 12.9 0.00 0.00 0.00 39 1016.6
20260503211249 21 152 4.8 4.8 0.00 0.00 0.00 41 1016.8
20260503210744 21 154 8.0 12.9 0.00 0.00 0.00 39 1016.6
20260503210242 21 194 1.6 1.6 0.00 0.00 0.00 39 1016.7
20260503205742 21 254 8.0 11.3 0.00 0.00 0.00 38 1016.8
20260503205239 20 212 4.8 6.4 0.00 0.00 0.00 40 1016.8
20260503204735 21 218 11.3 19.3 0.00 0.00 0.00 40 1016.8
20260503204233 21 206 4.8 6.4 0.00 0.00 0.00 40 1016.9
20260503203731 21 239 3.2 4.8 0.00 0.00 0.00 40 1016.9
20260503203228 21 234 4.8 6.4 0.00 0.00 0.00 38 1016.9
20260503202725 21 271 1.6 4.8 0.00 0.00 0.00 38 1017.1
20260503202223 21 207 4.8 6.4 0.00 0.00 0.00 35 1017.2
20260503201720 21 240 8.0 11.3 0.00 0.00 0.00 36 1017.4
20260503201218 21 179 3.2 4.8 0.00 0.00 0.00 38 1017.5
20260503200714 21 192 4.8 4.8 0.00 0.00 0.00 40 1017.5
20260503200210 21 202 1.6 4.8 0.00 0.00 0.00 39 1017.8
20260503195707 20 215 4.8 6.4 0.00 0.00 0.00 39 1017.8
20260503195204 21 268 9.7 11.3 0.00 0.00 0.00 37 1018.0
20260503194701 20 212 3.2 4.8 0.00 0.00 0.00 40 1018.2
20260503194156 21 247 9.7 11.3 0.00 0.00 0.00 38 1017.7
20260503193653 20 215 8.0 8.0 0.00 0.00 0.00 39 1017.8
20260503193149 20 97 9.7 11.3 0.00 0.00 0.00 40 1018.3
20260503192645 20 210 6.4 6.4 0.00 0.00 0.00 39 1018.1
20260503192141 20 278 6.4 8.0 0.00 0.00 0.00 40 1018.1
20260503191638 20 203 4.8 8.0 0.00 0.00 0.00 41 1018.2
20260503191135 20 258 4.8 4.8 0.00 0.00 0.00 38 1018.4
20260503190632 19 196 6.4 8.0 0.00 0.00 0.00 43 1018.4
20260503190129 20 208 8.0 11.3 0.00 0.00 0.00 39 1018.6
20260503185625 20 220 4.8 8.0 0.00 0.00 0.00 39 1018.6
20260503185120 20 278 4.8 4.8 0.00 0.00 0.00 41 1018.5
20260503184615 20 230 6.4 8.0 0.00 0.00 0.00 41 1018.6
20260503184112 20 71 3.2 4.8 0.00 0.00 0.00 40 1018.9
20260503183609 20 210 6.4 11.3 0.00 0.00 0.00 41 1018.7
20260503183106 20 211 3.2 4.8 0.00 0.00 0.00 38 1019.0
20260503182605 19 234 1.6 1.6 0.00 0.00 0.00 39 1018.8
20260503182102 20 315 8.0 11.3 0.00 0.00 0.00 39 1018.8
20260503181559 19 333 4.8 8.0 0.00 0.00 0.00 41 1018.8
20260503181055 19 289 6.4 8.0 0.00 0.00 0.00 41 1018.8
20260503180553 18 192 0.0 1.6 0.00 0.00 0.00 39 1018.7
20260503180050 19 314 6.4 6.4 0.00 0.00 0.00 41 1019.0
20260503175547 19 205 1.6 4.8 0.00 0.00 0.00 42 1019.0
20260503175044 19 219 4.8 6.4 0.00 0.00 0.00 43 1018.9
20260503174542 18 129 1.6 1.6 0.00 0.00 0.00 41 1019.3
20260503174038 19 276 3.2 4.8 0.00 0.00 0.00 40 1019.3
20260503173533 18 190 9.7 16.1 0.00 0.00 0.00 44 1019.1
20260503173029 18 208 4.8 6.4 0.00 0.00 0.00 44 1019.6
20260503172527 18 251 4.8 6.4 0.00 0.00 0.00 41 1019.5
20260503172024 18 112 1.6 4.8 0.00 0.00 0.00 44 1019.8
20260503171520 18 169 4.8 8.0 0.00 0.00 0.00 48 1019.6
20260503171018 18 212 3.2 6.4 0.00 0.00 0.00 46 1019.8
20260503170514 18 329 6.4 6.4 0.00 0.00 0.00 44 1020.0
20260503150906 15 176 0.0 1.6 0.00 0.00 0.00 50 1020.9
20260503150403 16 136 1.6 1.6 0.00 0.00 0.00 49 1020.9
20260503131256 13 305 0.0 1.6 0.00 0.00 0.00 57 1020.9
20260503130754 13 78 6.4 6.4 0.00 0.00 0.00 61 1020.8
20260503130251 12 109 1.6 4.8 0.00 0.00 0.00 63 1020.9
20260503120217 10 104 1.6 1.6 0.00 0.00 0.00 66 1020.4
20260503110644 9 308 3.2 4.8 0.00 0.00 0.00 67 1020.1
20260503110142 9 317 4.8 6.4 0.00 0.00 0.00 67 1019.9
20260503100109 9 336 4.8 6.4 0.00 0.00 0.00 65 1018.8
20260503081458 10 342 4.8 8.0 0.00 0.00 0.00 61 1018.0
20260503080955 10 333 8.0 8.0 0.00 0.00 0.00 60 1017.9
20260503080451 10 3 3.2 4.8 0.00 0.00 0.00 62 1017.7
20260503072927 10 82 0.0 1.6 0.00 0.00 0.00 64 1017.7
20260503072425 10 349 1.6 1.6 0.00 0.00 0.00 64 1017.4
20260503071922 10 245 1.6 4.8 0.00 0.00 0.00 64 1017.3
20260503071419 10 310 1.6 1.6 0.00 0.00 0.00 64 1017.5
20260503070915 10 274 1.6 1.6 0.00 0.00 0.00 64 1017.4
20260503070412 10 289 1.6 1.6 0.00 0.00 0.00 64 1017.3
20260503060338 10 235 1.6 1.6 0.00 0.00 0.00 63 1017.2
20260503054826 10 204 0.0 0.0 0.00 0.00 0.00 63 1017.2
20260503054321 10 205 0.0 0.0 0.00 0.00 0.00 64 1017.3
20260503053820 10 204 0.0 0.0 0.00 0.00 0.00 65 1017.3
20260503053318 10 205 1.6 1.6 0.00 0.00 0.00 64 1017.2
20260503052814 10 207 0.0 0.0 0.00 0.00 0.00 64 1017.1
20260503052311 10 220 0.0 1.6 0.00 0.00 0.00 63 1017.1